Tracking 18980 objects as of 20-Feb-2018
HD Live streaming from Space Station
objects crossing your sky now

COSMOS 2042

Track COSMOS 2042 now!
10-day predictions
COSMOS 2042 is classified as:


NORAD ID: 20236
Int'l Code: 1989-074E
Perigee: 1,409.2 km
Apogee: 1,416.8 km
Inclination: 82.6 °
Period: 113.9 minutes
Semi major axis: 7783 km
RCS: 1.1192 m2 (large)
Launch date: September 14, 1989
Source: Commonwealth of Independent States (former USSR) (CIS)
Launch site: PLESETSK MISSILE AND SPACE COMPLEX (PKMTR)
aabbcc
Your satellite tracking list
Your tracking list is empty




NASA's NSSDC Master Catalog

Two Line Element Set (TLE):
1 20236U 89074E   18050.36686539  .00000023  00000-0  64782-4 0  9997
2 20236  82.5857   3.6429 0004851 186.0836 289.7955 12.64154731427826
Source of the keplerian elements: AFSPC